Volver al catálogo

STARLINK-2266

ActivoComunicacionesVLEO
NORAD 47997·PAYLOAD·🇺🇸 United States

Lanzado Mar 24, 2021 desde Cape Canaveral Space Force Station

Loading…

Próximos Pases (próximas 24 horas)

TLE

ActualizadoSource: CelesTrak SupGP

Época: Sep 15, 2026, 02:28 UTC

1 47997C 21024W   26258.10326389  .00048502  00000+0  15599-2 0  2587
2 47997  53.1582 145.2826 0001383  88.5776  72.3294 15.31673812    11

Sigue STARLINK-2266 en tiempo real con AllMySat

Download on the App Store